Date String (YYYY-MM-DD hh:mm:ss) UTC,Instrument flags,Ambient pressure (hPa),Sample flow (lpm),Bypass flow (lpm),Sample temperature (°C),Ambient temperature (°C),ASC tube jacket temperature (°C),LED temperature (°C),Box temperature (°C),Sample RH (%),Span deviation,Mass concentration (μg/m³),Mass concentration (μg/m³),Mass concentration (μg/m³)
DateTimeUTC,F1_M11,P_M11,Q1_M11,Q2_M11,T1_M11,T2_M11,T3_M11,T4_M11,T5_M11,U1_M11,ZSPAN_M11,X0_M11,X2_M11,X1_M11
2022-04-05 09:00:00,,0806.4,5.01,0.00,26.2,25.0,00.0,35.2,28.0,10.5,0000.0,0027.92,0003.66,0001.39
2022-04-05 09:01:00,,0806.6,5.01,0.00,26.2,24.9,00.0,35.1,28.0,10.5,0000.0,0028.95,0003.71,0001.40
2022-04-05 09:02:00,,0806.6,5.00,0.00,26.2,24.9,00.0,35.1,28.0,10.5,0000.0,0028.54,0003.69,0001.38
2022-04-05 09:03:00,,0806.6,5.01,0.00,26.2,24.9,00.0,35.1,27.9,10.5,0000.0,0022.54,0003.62,0001.34
2022-04-05 09:04:00,,0806.6,4.99,0.00,26.2,24.9,00.0,35.1,27.9,10.5,0000.0,0019.22,0003.57,0001.33
2022-04-05 09:05:00,,0806.7,5.00,0.00,26.1,24.9,00.0,35.1,27.9,10.5,0000.0,0019.28,0003.58,0001.31
2022-04-05 09:06:00,,0806.6,5.01,0.00,26.1,24.9,00.0,35.1,27.9,10.6,0000.0,0019.29,0003.60,0001.30
2022-04-05 09:07:00,,0806.5,4.98,0.00,26.1,24.9,00.0,35.1,27.9,10.5,0000.0,0016.78,0003.56,0001.28
2022-04-05 09:08:00,,0806.4,5.01,0.00,26.1,24.9,00.0,35.1,27.9,10.6,0000.0,0013.48,0003.52,0001.28
2022-04-05 09:09:00,,0806.5,5.01,0.00,26.1,24.9,00.0,35.1,27.9,10.6,0000.0,0012.87,0003.50,0001.27
2022-04-05 09:10:00,,0806.6,5.01,0.00,26.1,24.8,00.0,35.1,27.9,10.6,0000.0,0012.63,0003.44,0001.27
2022-04-05 09:11:00,,0806.1,4.99,0.00,26.1,24.8,00.0,35.1,27.8,10.7,0000.0,0012.92,0003.48,0001.27
2022-04-05 09:12:00,,0806.0,5.01,0.00,26.1,24.8,00.0,35.1,27.8,10.8,0000.0,0013.86,0003.51,0001.24
2022-04-05 09:13:00,,0806.5,4.99,0.00,26.0,24.7,00.0,35.0,27.8,10.8,0000.0,0019.10,0003.58,0001.24
2022-04-05 09:14:00,,0806.6,5.00,0.00,26.0,24.8,00.0,35.0,27.8,10.9,0000.0,0020.01,0003.60,0001.24
2022-04-05 09:15:00,,0806.7,5.01,0.00,26.0,24.8,00.0,35.0,27.8,10.9,0000.0,0018.39,0003.59,0001.22
2022-04-05 09:16:00,,0806.6,4.98,0.00,26.0,24.8,00.0,35.0,27.8,10.9,0000.0,0018.06,0003.53,0001.20
2022-04-05 09:17:00,,0806.6,5.01,0.00,26.0,24.7,00.0,35.0,27.8,10.7,0000.0,0018.50,0003.50,0001.19
2022-04-05 09:18:00,,0806.7,5.00,0.00,26.0,24.7,00.0,35.0,27.8,10.8,0000.0,0018.64,0003.46,0001.17
2022-04-05 09:19:00,,0806.8,4.99,0.00,26.0,24.8,00.0,35.0,27.8,10.9,0000.0,0019.07,0003.46,0001.15
2022-04-05 09:20:00,,0807.0,5.01,0.00,26.0,24.8,00.0,35.0,27.8,10.9,0000.0,0018.92,0003.41,0001.15
2022-04-05 09:21:00,,0807.0,4.99,0.00,26.0,24.7,00.0,35.0,27.8,10.9,0000.0,0018.92,0003.39,0001.14
2022-04-05 09:22:00,,0807.0,5.00,0.00,26.0,24.7,00.0,35.0,27.8,10.9,0000.0,0018.31,0003.39,0001.14
2022-04-05 09:23:00,,0806.8,4.99,0.00,26.0,24.7,00.0,35.0,27.8,10.9,0000.0,0017.11,0003.28,0001.14
2022-04-05 09:24:00,,0806.7,5.00,0.00,26.0,24.7,00.0,34.9,27.7,10.9,0000.0,0012.27,0003.27,0001.15
2022-04-05 09:25:00,,0807.0,5.00,0.00,26.0,24.7,00.0,34.9,27.7,10.9,0000.0,0014.30,0003.55,0001.18
2022-04-05 09:26:00,,0806.8,4.99,0.00,26.0,24.7,00.0,34.9,27.7,10.9,0000.0,0015.75,0003.79,0001.23
2022-04-05 09:27:00,,0807.0,5.01,0.00,25.9,24.7,00.0,34.9,27.7,10.9,0000.0,0016.94,0003.92,0001.25
2022-04-05 09:28:00,,0806.9,5.00,0.00,25.9,24.7,00.0,34.9,27.7,11.0,0000.0,0017.88,0003.91,0001.25
2022-04-05 09:29:00,,0806.8,5.00,0.00,25.9,24.7,00.0,34.9,27.7,10.9,0000.0,0018.91,0003.95,0001.27
2022-04-05 09:30:00,,0807.0,5.01,0.00,25.9,24.7,00.0,34.9,27.7,10.9,0000.0,0018.77,0003.94,0001.27
2022-04-05 09:31:00,,0806.9,4.99,0.00,25.9,24.6,00.0,34.9,27.7,10.9,0000.0,0019.30,0004.01,0001.29
2022-04-05 09:32:00,,0806.9,5.01,0.00,25.9,24.7,00.0,34.9,27.7,11.0,0000.0,0019.54,0004.04,0001.30
2022-04-05 09:33:00,,0806.9,5.00,0.00,25.9,24.7,00.0,34.9,27.7,10.8,0000.0,0019.56,0004.00,0001.29
2022-04-05 09:34:00,,0806.6,4.99,0.00,25.9,24.7,00.0,34.9,27.7,10.8,0000.0,0019.61,0004.01,0001.28
2022-04-05 09:35:00,,0806.8,5.01,0.00,25.9,24.6,00.0,34.9,27.7,10.8,0000.0,0018.37,0003.92,0001.26
2022-04-05 09:36:00,,0806.8,5.00,0.00,25.8,24.7,00.0,34.8,27.6,10.9,0000.0,0015.24,0003.65,0001.23
2022-04-05 09:37:00,,0806.8,5.02,0.00,25.8,24.6,00.0,34.8,27.6,10.9,0000.0,0014.77,0003.39,0001.20
2022-04-05 09:38:00,,0806.9,5.01,0.00,25.8,24.6,00.0,34.8,27.6,11.0,0000.0,0014.23,0003.32,0001.20
2022-04-05 09:39:00,,0807.0,5.00,0.00,25.8,24.6,00.0,34.8,27.6,11.0,0000.0,0012.64,0003.28,0001.21
2022-04-05 09:40:00,,0807.0,4.99,0.00,25.8,24.6,00.0,34.8,27.6,11.1,0000.0,0011.39,0003.25,0001.19
2022-04-05 09:41:00,,0807.1,5.01,0.00,25.8,24.6,00.0,34.8,27.6,11.1,0000.0,0011.25,0003.23,0001.17
2022-04-05 09:42:00,,0807.0,5.01,0.00,25.8,24.6,00.0,34.8,27.6,11.1,0000.0,0011.06,0003.19,0001.14
2022-04-05 09:43:00,,0807.0,4.98,0.00,25.8,24.6,00.0,34.8,27.6,11.2,0000.0,0011.14,0003.19,0001.14
2022-04-05 09:44:00,,0806.8,5.01,0.00,25.8,24.6,00.0,34.8,27.6,11.3,0000.0,0011.65,0003.24,0001.16
2022-04-05 09:45:00,,0807.1,4.98,0.00,25.8,24.6,00.0,34.8,27.6,11.6,0000.0,0012.76,0003.33,0001.19
2022-04-05 09:46:00,,0807.1,5.02,0.00,25.8,24.6,00.0,34.8,27.6,11.7,0000.0,0012.79,0003.34,0001.19
2022-04-05 09:47:00,,0807.1,4.99,0.00,25.8,24.6,00.0,34.8,27.5,11.9,0000.0,0012.91,0003.39,0001.20
2022-04-05 09:48:00,,0807.1,4.99,0.00,25.8,24.5,00.0,34.8,27.5,12.0,0000.0,0011.44,0003.43,0001.19
2022-04-05 09:49:00,,0807.2,5.00,0.00,25.8,24.5,00.0,34.8,27.6,12.1,0000.0,0010.93,0003.41,0001.17
2022-04-05 09:50:00,,0807.3,4.99,0.00,25.8,24.5,00.0,34.7,27.5,12.1,0000.0,0011.59,0003.46,0001.18
2022-04-05 09:51:00,,0807.3,5.01,0.00,25.7,24.6,00.0,34.7,27.5,11.8,0000.0,0011.95,0003.47,0001.21
2022-04-05 09:52:00,,0807.3,4.99,0.00,25.7,24.6,00.0,34.7,27.5,11.8,0000.0,0011.70,0003.46,0001.23
2022-04-05 09:53:00,,0807.1,4.99,0.00,25.7,24.6,00.0,34.7,27.5,12.1,0000.0,0011.87,0003.44,0001.23
2022-04-05 09:54:00,,0807.1,5.02,0.00,25.7,24.5,00.0,34.7,27.5,11.8,0000.0,0011.51,0003.44,0001.24
2022-04-05 09:55:00,,0807.2,4.98,0.00,25.7,24.5,00.0,34.7,27.5,11.7,0000.0,0011.16,0003.42,0001.25
2022-04-05 09:56:00,,0807.3,5.00,0.00,25.7,24.5,00.0,34.7,27.5,11.7,0000.0,0009.77,0003.30,0001.22
2022-04-05 09:57:00,,0807.4,5.00,0.00,25.7,24.5,00.0,34.7,27.4,11.8,0000.0,0009.54,0003.29,0001.22
2022-04-05 09:58:00,,0807.2,5.01,0.00,25.7,24.6,00.0,34.7,27.4,11.7,0000.0,0009.25,0003.19,0001.22
2022-04-05 09:59:00,,0807.1,4.98,0.00,25.7,24.6,00.0,34.7,27.4,11.5,0000.0,0009.62,0003.13,0001.22
